Weather in Boyets Kuznetsov

Russia / Primorsky Krai     42°57′09″N   133°04′03″E
temp.,
°C
wind,
m/s
gust,
m/s
humid.,
%
clouds,
%
prec.,
mm/h
press.,
hPa
HPBL,
m
20 september, mon
mon2001:00+14n1192100 0.0 101818
04:00+13nne2392100 0.0 101874
07:00+13nne2390100 0.0 101975
10:00+19e126699 0.0 1020505
13:00+21se4451100 0.0 10191097
16:00+20sse335789 0.0 1019968
19:00+16se1177100 0.0 101921
22:00+13ese1192100 0.0 101819
21 september, tue
tue2101:00+13ene1289100 0.0 101731
04:00+14ene1287100 0.0 101545
07:00+14ene2591100 0.3 1013158
10:00+15ese41290100 0.6 1011851
13:00+15ese51395100 2.6 1009858
16:00+15ese41596100 8.7 1006703
19:00+16se41497100 2.1 1005668
22:00+15e1399100 3.8 1004120
22 september, wed
wed2201:00+15ese1198100 0.3 100445
04:00+15ese119961 0.3 100333
07:00+16se1199100 0.0 100445
10:00+20s24887 1.1 1004524
13:00+22sse467515 1.2 10031064
16:00+21sse477761 1.5 10031034
19:00+17se249878 0.5 1004220
22:00+16ese129994 1.2 100646
23 september, thu
thu2301:00+16ese1298100 1.0 100676
04:00+15ne129985 1.2 100741
07:00+15nne2398100 0.3 100889
10:00+15nne2398100 3.4 1010163
13:00+14n2598100 4.8 1010280
16:00+13nne2597100 7.0 1012251
19:00+12nne2496100 0.5 1014188
22:00+11nne2496100 0.5 1016163
24 september, fri
fri2401:00+11nne2396100 0.1 1017182
04:00+11nne249692 0.2 1018179
07:00+11nne2395100 0.0 1020138
10:00+11nne2395100 0.2 1022172
13:00+11nne1294100 0.1 1022175
16:00+13nne128899 0.1 1023255
19:00+12nne119088 0.0 102437
22:00+11nne129081 0.0 102545